CZ-3B DEB, 40851

Orbit data source: Space-Track

CZ-3B DEB, 40851 is space debris in HEO originally from a launch on Mon, 19 Dec 2011 UTC launched from the Xichang Space Center, China (XSC). Debris objects in space refer to the collection of defunct objects orbiting the Earth. Examples of debris include non-operational satellites, rocket bodies, and fragments generated from explosions, collisions, or faulty payload assembly.

Loading next visibility...
CZ-3B DEB details
Identifier
40851, 2011-077AG
Orbit
HEO
Last TLE update2 days ago
Origin
Flag of CNCASC (CN / PRC)
ManufacturerCALT
MissionSpacecraft
Bus & MotorUnknown
MassUnknown
Launch date (UTC)
2011-12-19 (13 years ago)
Launch vehicleUnknown
Launch site
Xichang Space Center, China (XSC)
Object type
Payload
Rocket body
Debris
Shape & HBRUnknown
Radar Cross SectionMedium (>0.1 m² and <1 m²)

Expand to show TLE details & history

TLE from 2 days ago
0 CZ-3B DEB
1 40851U 11077AG  24359.64761297 -.00000066  00000-0 -53976-3 0  9996
2 40851  25.0240 162.7184 7396769 123.1824 329.0686  1.90208267 75966
Epoch: 2024-12-24T15:32Z
Definitive object data (Epoch: 2024-12-24T15:32:33.76Z)
Latitude
Longitude-164.04858°
Altitude14,486.626 km
Speed4.87 km/s
True Right ascension10h 50m 58s
True Declination0° 00' 00"
Sunlit
Object was in daylight at TLE epoch
Visualization TLE readout
Latitude-22.9069°
Longitude130.58327°
Altitude39,164.271 km
Speed1.738 km/s
Apparent Right ascension06h 05m 02s
Apparent Declination-28° 44' 48"
Sunlit
Object is in daylight
Visualization observer readout
Local Sidereal Time10:28:20
Azimuth233.16° WSW
Elevation-1.904°
Doppler factor1
Orbital elements
Apogee altitude41,497.191 km
Perigee altitude785.868 km
Semi-major axis27,519.666 km
Eccentricity0.7396769
Inclination25.024°
RAAN162.7184°
Arg. of periapsis123.1824°
True anomaly236.94026°
Mean anomaly329.0686°
Eccentric anomaly288.99628°
Mean motion0.47542 °/min
BSTAR-0.00053976
Orbital period757.22 mins
Loading maneuver chart data...
Loading historical data...
Loading historical data...
Loading historical data...
Loading historical data...
Loading historical data...
Loading historical data...
Loading historical data...

CZ-3B DEB Visibility forecast

Observer location: undefined°, undefined

Span
Click to sort rows by Start time (UTC) header in descending order
Start Az.
Max El. time (UTC)
Max El. Az.
Max El.
End time (UTC)
End Az.
6 mins2024-12-26 18:58:03.169Z239.623° WSW2024-12-26 19:01:03.169Z210.962° SW15.381°2024-12-26 19:04:03.169Z166.893° S
|